Zurück zum Katalog

DELTA 1 DEB

AktivLEO
NORAD 7043·DEBRIS·🇺🇸 United States

Gestartet Nov 6, 1973 von Vandenberg Space Force Base

Loading…

Nächste Überflüge (nächste 24 Stunden)

TLE

AktuellSource: Space-Track

Epoche: Sep 13, 2026, 18:32 UTC

1 07043U 73086AK  26256.77281088 -.00000118  00000-0 -24883-3 0  9990
2 07043 102.1179 328.3518 0216508  60.4529  61.1399 12.85398610475968

Verfolge DELTA 1 DEB in Echtzeit mit AllMySat

Download on the App Store